Роанн

Франция     46°02′35″N   4°04′19″E
темп.,
°C
ветер,
м/с
пор.,
м/с
влажн.,
%
обл.,
%
осадки,
мм/ч
давл.,
гПа
погр.,
м
19 апреля, пн
пн1923:00+4сз358573 0.0 1022128
02:00+2сз329362 0.0 102236
05:00+4сз249191 0.0 1021120
08:00+4ссз259475 0.0 1021190
11:00+8с347332 0.1 1020957
14:00+10с345873 0.3 10201320
17:00+11с345578 0.0 10181610
20:00+8ссз237339 0.0 101866
20 апреля, вт
вт2023:00+6зсз228484 0.0 101943
02:00+4сз11915 0.0 101910
05:00+3ююз11925 0.0 101810
08:00+4ю11905 0.0 101835
11:00+11в12689 0.0 1017734
14:00+14всв215526 0.1 10151355
17:00+14в115775 0.7 10131275
20:00+9ссв3685100 1.4 1014102
21 апреля, ср
ср2123:00+8юз1195100 4.0 101634
02:00+6ю2295100 5.7 101628
05:00+6ююв2498100 0.4 1016179
08:00+6вюв119699 0.6 101638
11:00+10ююв568194 0.3 10171020
14:00+8ю2689100 2.1 1017458
17:00+10ю5775100 0.4 1016875
20:00+8ю249395 1.0 1016219
22 апреля, чт
чт2223:00+7ю119676 0.8 101827
02:00+7ю229586 0.9 101852
05:00+7ю119297 0.0 101720
08:00+7ю119249 0.0 101855
11:00+11вюв127967 0.0 1018512
14:00+14св336129 0.2 10171349
17:00+15ссв556361 0.3 10161275
20:00+10ссв49873 1.1 1018401
23 апреля, пт
пт2323:00+5ссз32920 0.0 102135
02:00+3сз34880 0.0 102256
05:00+2сз33860 0.0 102244
08:00+3сз24860 0.0 1022116
11:00+8с35580 0.0 1022684
14:00+13ссв45420 0.0 10201245
17:00+13ссв45450 0.0 10201302
20:00+9с37710 0.0 1021173